Regional Weather Roundup
Issued by NWS

Home | Current Version | Previous Version | Text Only | Print | Product List | Glossary On
Versions: 1 2 3 4 5 6 7 8 9 10 11 12 13 14 15 16 17 18 19 20 21 22 23 24 25 26 27 28 29 30 31 32 33 34 35 36 37 38 39 40 41 42 43 44 45 46 47 48 49 50
000
ASUS44 KLIX 281810
RWRLA
LOUISIANA WEATHER ROUNDUP
NATIONAL WEATHER SERVICE NEW ORLEANS LA
100 PM CDT MON JUL 28 2014

NOTE: "FAIR" INDICATES FEW OR NO CLOUDS BELOW 12,000 FEET WITH NO
      SIGNIFICANT WEATHER AND/OR OBSTRUCTIONS TO VISIBILITY.
      SKY/WX - SKY CONDITION AND SIGNIFICANT WEATHER.
      TMP - AIR TEMPERATURE.    DP   - DEWPOINT TEMPERATURE.
      RH  - RELATIVE HUMIDITY.  PRES - PRESSURE.
      HX  - HEAT INDEX.         WCI  - WIND CHILL INDEX.

*  THESE STATIONS ARE NOT NWS OR FAA STATIONS AND ARE NOT UNDER
   NWS QUALITY CONTROL.

LAZ040-048-061>063-065-066-069-281900-
SOUTHEAST LOUISIANA

CITY           SKY/WX    TMP DP  RH WIND       PRES   REMARKS
N.O. AUDUBON     N/A     96  76  52 MISG        N/A  HX 108
6HR MIN TEMP:  82; 6HR MAX TEMP:  96;

N.O. INTL ARPT PTSUNNY   92  75  57 W10       30.06F HX 103
6HR MIN TEMP:  80; 6HR MAX TEMP:  93;

N.O. LAKEFRONT MOSUNNY   90  76  63 NW13      30.06F HX 101
6HR MIN TEMP:  83; 6HR MAX TEMP:  90;

N.O. DOWNTOWN* FAIR      93  72  49 W9        30.06F HX 100
6HR MIN TEMP:  82; 6HR MAX TEMP:  93;

SLIDELL        PTSUNNY   90  77  65 MISG      30.04F HX 103
6HR MIN TEMP:  80; 6HR MAX TEMP:  92;

BATON ROUGE    PTSUNNY   89  76  65 NW10      30.08F HX 100
6HR MIN TEMP:  78; 6HR MAX TEMP:  91;

BOOTHVILLE     MOSUNNY   88  77  69 W15       30.08F HX 100
6HR MIN TEMP:  82; 6HR MAX TEMP:  89;

BELLE CHASSE   PTSUNNY   92  71  50 W9        30.05F HX  98
6HR MIN TEMP:  80; 6HR MAX TEMP:  92;

BOGALUSA*        N/A     91  74  57 NW12G18   30.06F HX 101
6HR MIN TEMP:  79; 6HR MAX TEMP:  93;

GALLIANO*      NOT AVBL
NEW ROADS*     FAIR      87  77  71 W6        30.08F HX  99
6HR MIN TEMP:  76; 6HR MAX TEMP:  87;

GONZALES*      MOCLDY    88  77  69 W6        30.07F HX 100
6HR MIN TEMP:  79; 6HR MAX TEMP:  89;

HAMMOND*       PTSUNNY   91  73  55 W12       30.07F HX 100
HOUMA*         NOT AVBL
PORT FOURCHON* PTCLDY    90  75  62 W12       30.11S HX 100

$$

LAZ041-044-053-054-281900-
SOUTHWEST LOUISIANA

CITY           SKY/WX    TMP DP  RH WIND       PRES   REMARKS
LAKE CHARLES   MOSUNNY   91  72  53 VRB6      30.09F HX  98
6HR MIN TEMP:  79; 6HR MAX TEMP:  91;

LAFAYETTE      NOT AVBL
PATTERSON        N/A    N/A N/A N/A CALM        N/A
6HR MIN TEMP:  77; 6HR MAX TEMP:  55;

SALT POINT       N/A     91  79  67 VRB5      30.09F HX 107
6HR MIN TEMP:  86; 6HR MAX TEMP:  91;

NEW IBERIA     MOSUNNY   91  76  61 W9        30.09F HX 103
6HR MIN TEMP:  77; 6HR MAX TEMP:  91;

CHENAULT AIRPK MOSUNNY   91  70  49 NW12      30.10F HX  97

$$

LAZ027-028-281900-
CENTRAL LOUISIANA

CITY           SKY/WX    TMP DP  RH WIND       PRES   REMARKS
FORT POLK      MOSUNNY   90  71  53 W10G16    30.09F HX  96
6HR MIN TEMP:  77; 6HR MAX TEMP:  90;

ALEXANDRIA INT PTSUNNY   90  71  53 W7        30.06F HX  96
6HR MIN TEMP:  77; 6HR MAX TEMP:  91;

ALEXANDRIA     PTSUNNY   94  76  55 W15       30.07F HX 106
6HR MIN TEMP:  79; 6HR MAX TEMP:  94;


$$

LAZ001-002-281900-
NORTHWEST LOUISIANA

CITY           SKY/WX    TMP DP  RH WIND       PRES   REMARKS
SHREVEPORT     MOSUNNY   90  75  61 N6        30.08F HX 100
6HR MIN TEMP:  79; 6HR MAX TEMP:  91; 6HR PCP:  0.04;

BARKSDALE AFB  MOSUNNY   90  71  53 NE5       30.08F HX  96
6HR MIN TEMP:  79; 6HR MAX TEMP:  90; 6HR PCP: TRACE;

DTN SHREVEPORT SUNNY     90  71  53 N3        30.08F HX  96
6HR MIN TEMP:  78; 6HR MAX TEMP:  90; 6HR PCP: TRACE;


$$

LAZ014-016-281900-
NORTHEAST LOUISIANA

CITY           SKY/WX    TMP DP  RH WIND       PRES   REMARKS
MONROE         SUNNY     89  71  55 N7        30.07F HX  95
6HR MIN TEMP:  76; 6HR MAX TEMP:  90; 6HR PCP:  0.02;

TALLULAH       MOSUNNY   88  74  63 NW7       30.06F HX  96
6HR MIN TEMP:  77; 6HR MAX TEMP:  88; 6HR PCP:  0.03;


$$




USA.gov is the U.S. government's official web portal to all federal, state and local government web resources and services.